Location: Oberstdorf
(47.4188°N, 10.2969°E)
Time: 14:27:58
(UTC+01:00)

ISS - Pass Details

Date: 31 October 2019
Orbit: 412 x 421 km, 51.6° (Epoch: 17 November)

Event Time Altitude Azimuth Distance (km) Brightness Sun altitude
Exits shadow 04:57:46 66° 39° (NE) 464 -3.5 -21.2°
Drops below altitude 10° 05:00:47 10° 65° (ENE) 1,509 0.0 -20.7°
Sets 05:02:54 0° 66° (ENE) 2,375 1.3 -20.3°
